Etusivu
METAR-TAF:

METAR-TAF

Lentoasemat :

Tri-County Regional Airport

Lone Rock, Wisconsin, Yhdysvallat

Leveyspiiri: 43-12-43N, Pituuspiiri: 090-10-53W, korkeus merenpinnasta: 219 m

Tämänhetkinen sää

Tämä raportti tehtiin 22 minuuttia sitten, kello 09.56 UTC
Tuuli 7 kn lännestä/luoteesta
Lämpötila 9°C
Kosteus 46%
Ilmanpaine 1010 hPa
Näkyvyys: 16.1 km
selkeää

METAR: KLNR 260956Z AUTO 30007KT 10SM CLR 09/M02 A2982 RMK AO2 SLP094 T00941017

Aika: 05:18 (10:18 UTC)


TAF: puuttuu

Säähavainnot ja -ennusteet yli 4000 lentoasemalta (METAR- ja TAF-raportit).

Käytössä olevat sääasemat on merkitty karttaan keltaisilla ja punaisilla pisteillä.

Aseta hiiri pisteen päälle nähdäksesi sääaseman nimen.

Klikkaa sitten nähdäksesi säähavainnot ja -ennusteet.

Kartan vaihtaminen: klikkaa mustalla rastilla varustettuja vihreitä pisteitä, niin voit zoomata sisään; viivalla varustettua vihreää pistettä, niin voit zoomata ulos tai vihreitä nuolia, niin pääset viereisille kartoille.


METAR-TAF: